Flag for Germany Weather past 2 weeks in Neuwied, Rhineland-Palatinate, Germany

Now
55 °F

Refreshingly cool.


Feels Like: 51 °F
Forecast: 47 / 70 °F
Wind: 18 mph from Northeast

Location: Buechel


UV Index: 3 (Moderate)

Visibility: N/A


Pressure: 29.89 "Hg

Humidity: 51%

Dew point: 37 °F

Location of NeuwiedLocation

Historic Weather in Neuwied

°F

Neuwied temperature yesterday

Maximum temperature yesterday: 50 °F (at 12:20 AM)
Minimum temperature yesterday: 39 °F (at 11:20 AM)
Average temperature yesterday: 45 °F

Past Weeks' High & Low Weather Summary

 TemperatureHumidityPressure
High66 °F (Apr 7, 4:20 PM)100% (Apr 6, 4:20 AM)30.39 "Hg (Apr 6, 4:20 AM)
Low34 °F (Apr 16, 3:20 AM)27% (Apr 17, 6:20 PM)29.74 "Hg (Apr 4, 3:20 PM)
Average50 °F68%30.08 "Hg
* Reported Apr 4 2:20 PM — Apr 19 2:20 PM, Neuwied, Weather by CustomWeather, © 2014

Note: Actual official high and low records may vary slightly from our data, if they occured in-between our weather recording intervals... More about our weather records

Advertising

Historic Weather Conditions — Data for Previous 24 hours

 ConditionsComfort  
Time TempWeatherWind HumidityBarometerVisibility
2:20 PM
Apr 19
54 °FCool.17 mph51%29.92 "HgN/A
1:20 PM50 °FCool.16 mph54%29.95 "HgN/A
12:20 PM46 °FCool.16 mph62%29.95 "HgN/A
11:20 AM45 °FQuite cool.13 mph71%29.98 "HgN/A
10:20 AM43 °FQuite cool.13 mph76%29.98 "HgN/A
9:20 AM41 °FQuite cool.14 mph81%29.98 "HgN/A
8:20 AM39 °FChilly.9 mph87%29.95 "Hg6 mi
7:20 AM37 °FChilly.8 mph93%29.95 "Hg5 mi
6:20 AM37 °FChilly.7 mph87%29.95 "Hg5 mi
5:20 AM37 °FChilly.8 mph87%29.95 "Hg5 mi
4:20 AM37 °FChilly.7 mph87%29.92 "Hg5 mi
3:20 AM37 °FChilly.7 mph87%29.92 "HgN/A
2:20 AM39 °FChilly.6 mph81%29.92 "HgN/A
1:20 AM41 °FQuite cool.8 mph81%29.95 "HgN/A
12:20 AM43 °FQuite cool.7 mph76%29.95 "HgN/A
11:20 PM
Apr 18
41 °FQuite cool.7 mph76%29.95 "HgN/A
10:20 PM43 °FQuite cool.7 mph71%29.95 "HgN/A
9:20 PM45 °FQuite cool.7 mph61%29.92 "HgN/A
8:20 PM45 °FQuite cool.6 mph53%29.92 "HgN/A
7:20 PM46 °FCool.12 mph46%29.92 "HgN/A
6:20 PM46 °FCool.13 mph46%29.92 "HgN/A
5:20 PM48 °FCool.15 mph46%29.92 "HgN/A
4:20 PM48 °FCool.15 mph40%29.92 "HgN/A
Weather by CustomWeather, © 2014

See weather overview